Location: Ellerstadt
(49.4644°N, 8.2615°E)
Time: 11:25:52
(UTC+00:00)

IRIDIUM 100 - Pass Details

Date: 29 September 2021
Orbit: 776 x 779 km, 86.4° (Epoch: 24 October)

Event Time Altitude Azimuth Distance (km) Brightness Sun altitude
Exits shadow 23:42:09 12° 30° (NNE) 2,171 ? -43.0°
Drops below altitude 10° 23:42:42 10° 26° (NNE) 2,342 ? -43.0°
Sets 23:45:23 0° 14° (NNE) 3,274 ? -42.9°
